Location: Misciano
(43.5000°N, 11.9500°E)
Time: 10:41:27
(UTC+00:00)

OBJECT-B - Pass Details

Date: 13 August 2020
Orbit: 422 x 433 km, 97.0° (Epoch: 17 September)

Event Time Altitude Azimuth Distance (km) Brightness Sun altitude
Exits shadow 19:20:24 - 165° (SSE) 1,577 3.2 -11.0°
Reaches altitude 10° 19:20:30 10° 165° (SSE) 1,532 3.2 -11.0°
Maximum altitude 19:23:47 84° 79° (E) 441 0.7 -11.5°
Drops below altitude 10° 19:27:05 10° 350° (N) 1,541 4.3 -12.0°
Sets 19:29:06 0° 349° (N) 2,411 5.3 -12.3°
